GW1095 Weather Reports


Display with metric or nautical units.
time (UTC)temp
F
wind
direction
speed
MPH
gust
MPH
rain 1hr
in
rain 24hr
in
rain mn
in
humidity
%
barometer
mb
20260504044535 45 191 1.0 5.0 0.00 0.00 0.00 62 1010.9
20260504043041 45 191 3.0 5.0 0.00 0.00 0.00 62 1011.3
20260504041535 44 202 2.0 5.0 0.00 0.00 0.00 63 1011.3
20260504040040 43 227 3.0 7.0 0.00 0.00 0.00 63 1011.3
20260504034537 43 0 1.0 3.0 0.00 0.00 0.00 61 1011.1
20260504033039 43 279 1.0 3.0 0.00 0.00 0.00 60 1010.9
20260504031535 44 0 0.0 0.0 0.00 0.00 0.00 56 1010.8
20260504030036 44 0 0.0 0.0 0.00 0.00 0.00 55 1010.8
20260504024535 45 0 0.0 2.0 0.00 0.00 0.00 53 1010.7
20260504023038 46 279 0.0 2.0 0.00 0.00 0.00 51 1010.8
20260504021537 47 279 1.0 2.0 0.00 0.00 0.00 49 1010.8
20260504020057 48 278 0.0 3.0 0.00 0.00 0.00 48 1010.8
20260504014553 49 279 0.0 3.0 0.00 0.00 0.00 46 1010.9
20260504013044 49 0 1.0 4.0 0.00 0.00 0.00 45 1010.9
20260504011538 50 284 1.0 7.0 0.00 0.00 0.00 44 1010.7
20260504010043 51 263 2.0 10.0 0.00 0.00 0.00 42 1010.5
20260504004550 51 219 3.0 10.0 0.00 0.00 0.00 41 1010.4
20260504003037 52 234 3.0 10.0 0.00 0.00 0.00 40 1010.2
20260504001555 52 265 6.0 13.0 0.00 0.00 0.00 39 1009.9
20260504000037 53 247 4.0 14.0 0.00 0.00 0.00 38 1009.7
20260503234535 54 322 5.0 15.0 0.00 0.00 0.00 36 1009.6
20260503233041 54 275 5.0 17.0 0.00 0.00 0.00 35 1009.3
20260503231537 55 285 4.0 12.0 0.00 0.00 0.00 34 1009.1
20260503230045 55 297 5.0 13.0 0.00 0.00 0.00 33 1009.0
20260503224537 55 262 9.0 17.0 0.00 0.00 0.00 32 1008.8
20260503223036 55 322 7.0 20.0 0.00 0.00 0.00 32 1008.8
20260503221535 56 262 6.0 15.0 0.00 0.00 0.00 32 1008.6
20260503220046 56 285 7.0 20.0 0.00 0.00 0.00 32 1008.7
20260503214537 57 254 8.0 19.0 0.00 0.00 0.00 32 1008.7
20260503213037 57 246 11.0 22.0 0.00 0.00 0.00 30 1008.6
20260503211537 57 262 7.0 17.0 0.00 0.00 0.00 32 1008.6
20260503210033 57 293 5.0 14.0 0.00 0.00 0.00 34 1008.7
20260503204541 56 248 5.0 12.0 0.00 0.00 0.00 37 1008.7
20260503203054 55 342 4.0 17.0 0.00 0.00 0.00 36 1009.0
20260503201538 54 360 5.0 16.0 0.00 0.00 0.00 37 1008.9
20260503200037 54 241 4.0 14.0 0.00 0.00 0.00 36 1009.1
20260503194542 54 290 3.0 14.0 0.00 0.00 0.00 39 1009.3
20260503193038 54 292 6.0 16.0 0.00 0.00 0.00 37 1009.6
20260503191543 53 222 8.0 13.0 0.00 0.00 0.00 39 1009.8
20260503190043 53 258 5.0 17.0 0.00 0.00 0.00 39 1009.9
20260503184537 53 269 9.0 17.0 0.00 0.00 0.00 41 1010.1
20260503183037 52 262 7.0 19.0 0.00 0.00 0.00 40 1010.3
20260503181538 52 298 5.0 15.0 0.00 0.00 0.00 40 1010.3
20260503180037 52 277 8.0 20.0 0.00 0.00 0.00 40 1010.3
20260503174536 52 331 5.0 17.0 0.00 0.00 0.00 41 1010.5
20260503173038 51 0 6.0 21.0 0.00 0.00 0.00 41 1010.4
20260503171537 51 315 7.0 16.0 0.00 0.00 0.00 39 1010.4
20260503081541 37 276 4.0 8.0 0.00 0.00 0.00 72 1011.2